PAA511 LEBL-LPPT

Flight info

Callsign PAA511
Flight time N/A
Altitude 37000
Route SENIA DCT DORMI DCT CRETA DCT NEXAS/N0454F390 DCT DISVU DCT ADUXO N975 PALIO DCT AKOKI DCT GOTOR DCT TLD DCT NATPA DCT MELON DCT CCS DCT ELVAR DCT UPULO
Aircraft B738/M-SDE2E3FGHIRWXY/LB1

Departure

Time 2026-05-06 22:53
Airport Josep Tarradellas Barcelona-El Prat Airport (LEBL)

Arrival

Time N/A
Airport Lisbon Humberto Delgado Airport (LPPT)
Time Latitude Longitude Altitude Speed Heading
2026-05-06 22:33 41.29194 2.08064 18 ft 0 kts 155°
2026-05-06 22:36 41.29198 2.08062 18 ft 3 kts 141°
2026-05-06 22:36 41.29199 2.08062 18 ft 0 kts 139°
2026-05-06 22:37 41.29211 2.08048 18 ft 3 kts 139°
2026-05-06 22:37 41.29224 2.08032 18 ft 0 kts 139°
2026-05-06 22:39 41.29225 2.08031 18 ft 2 kts 139°
2026-05-06 22:39 41.29239 2.08016 20 ft 3 kts 134°
2026-05-06 22:40 41.29246 2.07994 22 ft 3 kts 69°
2026-05-06 22:40 41.29245 2.07988 22 ft 0 kts 60°
2026-05-06 22:43 41.29248 2.07997 20 ft 2 kts 60°
2026-05-06 22:44 41.29257 2.08014 19 ft 4 kts 57°
2026-05-06 22:44 41.29274 2.08052 18 ft 5 kts 59°
2026-05-06 22:44 41.29287 2.08083 19 ft 6 kts 62°
2026-05-06 22:44 41.29308 2.08140 18 ft 7 kts 65°
2026-05-06 22:45 41.29330 2.08201 18 ft 8 kts 65°
2026-05-06 22:45 41.29352 2.08265 18 ft 8 kts 65°
2026-05-06 22:45 41.29371 2.08332 19 ft 8 kts 82°
2026-05-06 22:45 41.29353 2.08390 19 ft 6 kts 142°
2026-05-06 22:46 41.29318 2.08408 19 ft 5 kts 159°
2026-05-06 22:46 41.29290 2.08424 19 ft 4 kts 158°
2026-05-06 22:46 41.29257 2.08441 20 ft 6 kts 158°
2026-05-06 22:46 41.29213 2.08466 21 ft 8 kts 157°
2026-05-06 22:47 41.29155 2.08502 18 ft 10 kts 152°
2026-05-06 22:47 41.29084 2.08547 18 ft 11 kts 155°
2026-05-06 22:47 41.29018 2.08587 19 ft 10 kts 156°
2026-05-06 22:47 41.28954 2.08624 18 ft 10 kts 155°
2026-05-06 22:48 41.28886 2.08679 17 ft 12 kts 135°
2026-05-06 22:48 41.28876 2.08778 17 ft 11 kts 68°
2026-05-06 22:48 41.28908 2.08875 18 ft 12 kts 66°
2026-05-06 22:48 41.28942 2.08972 16 ft 12 kts 63°
2026-05-06 22:49 41.28976 2.09069 19 ft 12 kts 66°
2026-05-06 22:49 41.29012 2.09179 17 ft 14 kts 65°
2026-05-06 22:49 41.29056 2.09299 17 ft 15 kts 64°
2026-05-06 22:49 41.29103 2.09431 16 ft 16 kts 66°
2026-05-06 22:50 41.29152 2.09576 18 ft 18 kts 65°
2026-05-06 22:50 41.29206 2.09730 18 ft 19 kts 64°
2026-05-06 22:50 41.29262 2.09892 16 ft 19 kts 65°
2026-05-06 22:50 41.29270 2.10056 16 ft 19 kts 120°
2026-05-06 22:51 41.29200 2.10189 17 ft 16 kts 166°
2026-05-06 22:51 41.29145 2.10104 18 ft 0 kts 247°
2026-05-06 22:52 41.29127 2.10049 19 ft 30 kts 246°
2026-05-06 22:52 41.28936 2.09493 19 ft 101 kts 245°
2026-05-06 22:52 41.28559 2.08378 21 ft 161 kts 247°
2026-05-06 22:52 41.28125 2.06835 461 ft 180 kts 253°
2026-05-06 22:53 41.27844 2.05480 2110 ft 119 kts 261°
2026-05-06 22:53 41.27740 2.04516 3328 ft 106 kts 267°
2026-05-06 22:53 41.27745 2.03308 3652 ft 155 kts 273°
2026-05-06 22:53 41.27858 2.01777 4422 ft 175 kts 275°
2026-05-06 22:54 41.28005 2.00085 5239 ft 195 kts 276°
2026-05-06 22:54 41.28206 1.98227 5809 ft 212 kts 279°
2026-05-06 22:54 41.28558 1.96188 5986 ft 235 kts 284°
2026-05-06 22:54 41.28994 1.94153 6274 ft 226 kts 285°
2026-05-06 22:55 41.29421 1.92064 6898 ft 236 kts 283°
2026-05-06 22:55 41.29798 1.89973 8112 ft 229 kts 281°
2026-05-06 22:55 41.30116 1.87881 9127 ft 236 kts 279°
2026-05-06 22:55 41.30434 1.85637 9589 ft 259 kts 280°
2026-05-06 22:56 41.30822 1.83181 9916 ft 282 kts 281°
2026-05-06 22:56 41.31256 1.80614 10796 ft 285 kts 281°
2026-05-06 22:56 41.31690 1.78046 11954 ft 285 kts 281°
2026-05-06 22:56 41.32096 1.75415 12718 ft 296 kts 278°
2026-05-06 22:57 41.32239 1.72637 13406 ft 305 kts 270°
2026-05-06 22:57 41.32193 1.69817 14371 ft 303 kts 269°
2026-05-06 22:57 41.32150 1.67029 15382 ft 302 kts 269°
2026-05-06 22:57 41.32125 1.64202 16101 ft 310 kts 270°
2026-05-06 22:58 41.32124 1.61293 16756 ft 317 kts 270°
2026-05-06 22:58 41.32145 1.58356 17591 ft 318 kts 270°
2026-05-06 22:58 41.32111 1.55421 18504 ft 316 kts 268°
2026-05-06 22:58 41.31942 1.52499 19309 ft 318 kts 265°
2026-05-06 22:59 41.31695 1.49542 19920 ft 325 kts 263°
2026-05-06 22:59 41.31381 1.46541 20612 ft 329 kts 262°
2026-05-06 22:59 41.31014 1.43542 21430 ft 327 kts 261°
2026-05-06 22:59 41.30605 1.40557 22151 ft 331 kts 260°
2026-05-06 23:00 41.30144 1.37496 22557 ft 342 kts 259°
2026-05-06 23:00 41.29633 1.34381 23192 ft 345 kts 258°
2026-05-06 23:00 41.29043 1.31313 24089 ft 340 kts 255°
2026-05-06 23:00 41.28356 1.28320 24913 ft 338 kts 252°
2026-05-06 23:01 41.27540 1.25365 25444 ft 345 kts 250°
2026-05-06 23:01 41.26663 1.22334 25720 ft 357 kts 251°
2026-05-06 23:01 41.25781 1.19189 25980 ft 369 kts 251°
2026-05-06 23:01 41.24854 1.15994 26524 ft 370 kts 250°
2026-05-06 23:02 41.23956 1.12841 27483 ft 359 kts 251°
2026-05-06 23:02 41.23116 1.09756 28356 ft 353 kts 252°
2026-05-06 23:02 41.22269 1.06658 28651 ft 363 kts 251°
2026-05-06 23:02 41.21395 1.03423 28621 ft 381 kts 252°
2026-05-06 23:03 41.20554 1.00107 29037 ft 384 kts 253°
2026-05-06 23:03 41.19806 0.96672 29657 ft 382 kts 257°
2026-05-06 23:03 41.19198 0.93273 30046 ft 385 kts 258°
2026-05-06 23:03 41.18611 0.89726 30321 ft 391 kts 258°
2026-05-06 23:04 41.18044 0.86236 30812 ft 390 kts 258°
2026-05-06 23:04 41.17472 0.82729 31409 ft 387 kts 258°
2026-05-06 23:04 41.16903 0.79221 31813 ft 389 kts 259°
2026-05-06 23:04 41.16347 0.75670 32031 ft 395 kts 259°
2026-05-06 23:05 41.15792 0.72086 32385 ft 397 kts 259°
2026-05-06 23:05 41.15213 0.68522 32946 ft 393 kts 258°
2026-05-06 23:05 41.14628 0.65002 33495 ft 389 kts 258°
2026-05-06 23:05 41.14044 0.61493 33879 ft 390 kts 258°
2026-05-06 23:06 41.13443 0.57964 34100 ft 395 kts 258°
2026-05-06 23:06 41.12812 0.54386 34262 ft 401 kts 257°
2026-05-06 23:06 41.12153 0.50777 34537 ft 403 kts 257°
2026-05-06 23:06 41.11480 0.47174 34909 ft 402 kts 257°
2026-05-06 23:07 41.10774 0.43584 35278 ft 402 kts 256°
2026-05-06 23:07 41.10054 0.39996 35540 ft 404 kts 257°
2026-05-06 23:07 41.09357 0.36365 35738 ft 408 kts 256°
2026-05-06 23:07 41.08592 0.32742 36056 ft 408 kts 255°
2026-05-06 23:08 41.07778 0.29147 36432 ft 406 kts 254°
2026-05-06 23:08 41.06942 0.25575 36732 ft 407 kts 253°
2026-05-06 23:08 41.06080 0.21983 36868 ft 411 kts 253°
2026-05-06 23:09 41.04271 0.14671 36963 ft 423 kts 252°
2026-05-06 23:09 41.03343 0.10998 36880 ft 412 kts 252°
2026-05-06 23:09 41.02433 0.07431 35445 ft 409 kts 252°
2026-05-06 23:09 41.01499 0.03777 32794 ft 432 kts 252°
2026-05-06 23:10 41.00507 -0.00112 30148 ft 455 kts 252°
2026-05-06 23:10 40.99498 -0.04080 28681 ft 449 kts 252°
2026-05-06 23:10 40.98538 -0.07858 28398 ft 414 kts 252°
2026-05-06 23:10 40.97679 -0.11305 28408 ft 377 kts 253°
2026-05-06 23:11 40.97551 -0.11837 28370 ft 372 kts 253°